Whitefield, NH

8:01 PM EST on January 23, 2018 (GMT -0500)
Mount Washington Regional

Weather History for KHIE - September, 2012

Change the Weather History Date:

Monday, September 10, 2012

  Actual Average Record
Temperature  
Mean Temperature 50 °F -  
Max Temperature 59 °F 70 °F 90 °F (2002)
Min Temperature 44 °F 41 °F 32 °F (2003)
Degree Days  
Heating Degree Days 14    
Moisture  
Dew Point 46 °F    
Average Humidity 81    
Maximum Humidity 93    
Minimum Humidity 62    
Precipitation  
Precipitation 0.00 in - - ()
Sea Level Pressure  
Sea Level Pressure 29.99 in    
Wind  
Wind Speed 1 mph (WNW)    
Max Wind Speed 9 mph    
Max Gust Speed -    
Visibility 10 miles    
Events      
Averages and records for this station are not official NWS values.
T = Trace of Precipitation, MM = Missing Value Source: NWS Daily Summary

Daily Weather History Graph

Daily Weather History Graph

Search for Another Location

Airport or City:

Trip Planner

Search our weather history database for the weather conditions in past years. The results will help you decide how hot, cold, wet, or windy it might be!

Date:

Astronomy

Sep. 10, 2012 Rise Set
Actual Time 6:19 AM EDT 7:05 PM EDT
Civil Twilight 5:50 AM EDT 7:34 PM EDT
Nautical Twilight 5:15 AM EDT 8:09 PM EDT
Astronomical Twilight 4:39 AM EDT 8:45 PM EDT
Moon 12:28 AM EDT (9/10) 3:41 PM EDT (9/10)
Length of Visible Light 13h 44m
Length of Day
12h 45m
Waning Crescent, 30% of the Moon is Illuminated
Sep 10
Waning Crescent
Sep 15
New
Sep 22
First Quarter
Sep 29
Full
Oct 8
Last Quarter

Hourly Weather History & Observations

Time (EDT) Temp. Dew Point Humidity Pressure Visibility Wind Dir Wind Speed Gust Speed Precip Events Conditions
12:52 AM 46.9 °F 45.0 °F 93% 29.92 in 10.0 mi Calm Calm - N/A   Mostly Cloudy
1:33 AM 44.6 °F 42.8 °F 93% 29.91 in 7.0 mi Calm Calm - N/A   Scattered Clouds
1:52 AM 45.0 °F 42.1 °F 90% 29.92 in 10.0 mi Calm Calm - N/A   Scattered Clouds
2:52 AM 46.9 °F 45.0 °F 93% 29.92 in 10.0 mi Calm Calm - N/A   Overcast
3:52 AM 46.9 °F 45.0 °F 93% 29.92 in 10.0 mi Calm Calm - N/A   Overcast
4:52 AM 48.9 °F 46.9 °F 93% 29.93 in 10.0 mi Calm Calm - N/A   Overcast
5:52 AM 48.9 °F 46.9 °F 93% 29.93 in 10.0 mi Calm Calm - N/A   Overcast
6:52 AM 50.0 °F 48.0 °F 93% 29.94 in 10.0 mi Calm Calm - N/A   Overcast
7:52 AM 52.0 °F 48.9 °F 89% 29.96 in 10.0 mi Calm Calm - N/A   Overcast
8:47 AM 53.6 °F 48.2 °F 82% 29.96 in 10.0 mi Calm Calm - N/A   Overcast
8:52 AM 54.0 °F 48.9 °F 83% 29.97 in 10.0 mi SSW 3.5 mph - N/A   Overcast
9:52 AM 55.9 °F 48.9 °F 77% 29.98 in 10.0 mi Calm Calm - N/A   Overcast
10:52 AM 55.9 °F 48.0 °F 75% 29.99 in 10.0 mi NW 4.6 mph - N/A   Overcast
11:52 AM 57.9 °F 46.9 °F 67% 29.99 in 10.0 mi NW 5.8 mph - N/A   Overcast
12:52 PM 57.9 °F 46.0 °F 65% 29.99 in 10.0 mi WNW 9.2 mph - N/A   Overcast
1:52 PM 57.0 °F 45.0 °F 64% 30.00 in 10.0 mi NNW 8.1 mph - N/A   Overcast
3:52 PM 55.9 °F 43.0 °F 62% 30.00 in 10.0 mi WNW 6.9 mph - N/A   Overcast
4:52 PM 55.0 °F 42.1 °F 62% 30.01 in 10.0 mi WNW 8.1 mph - N/A   Overcast
5:52 PM 55.0 °F 43.0 °F 64% 30.03 in 10.0 mi NW 5.8 mph - N/A   Overcast
6:52 PM 54.0 °F 43.0 °F 66% 30.04 in 10.0 mi Calm Calm - N/A   Overcast
7:52 PM 52.0 °F 46.0 °F 80% 30.05 in 10.0 mi Calm Calm - N/A   Overcast
8:52 PM 51.1 °F 46.9 °F 86% 30.07 in 10.0 mi Calm Calm - N/A   Overcast
9:52 PM 50.0 °F 46.9 °F 89% 30.07 in 10.0 mi Calm Calm - N/A   Overcast
10:52 PM 48.9 °F 45.0 °F 86% 30.08 in 10.0 mi Calm Calm - N/A   Overcast
11:52 PM 45.0 °F 42.1 °F 90% 30.09 in 10.0 mi Calm Calm - N/A   Clear